sat.trackr.live / text

‹ back to catalog

STARLINK-5428

NORAD 54800 · 2022-175AU

PAYLOAD ACTIVE UNKNOWN

§ Identity

Operator
Country
US
Launch date
2022-12-17
Launch site
AFETR
Launch vehicle
Mass (kg)
RCS (m²)

Purposes: comms

External: N2YO · Heavens-Above · Gunter

§ Orbital elements

Epoch: 2026-05-25T03:21:01.296576Z

Period
95.44 min
Inclination
53.2152°
Eccentricity
0.0001577
Mean motion
15.08843027 rev/d
Perigee alt
538.6 km
Apogee alt
540.8 km
Semi-major
6,917.9 km
B*
3.3196e-5
RAAN
50.6922°
Arg perigee
84.2680°
Mean anomaly
275.8491°
Rev number
19,160

§ Raw data

STARLINK-54281 54800U 22175AU  26145.13959834  .00000240  00000+0  33196-4 0  99952 54800  53.2152  50.6922 0001577  84.2680 275.8491 15.08843027191600

JSON: /api/v1/satellites/54800 · /tle

For live sub-satellite position, see the globe view (requires WebGL).

§ Visibility from observer

Set your observer location to see the next 7 days of passes ≥ 10°. The values pass through the URL so the page stays shareable.

No JS? Fill the form by hand. The geolocation button needs JavaScript.